Garden City, GA

8:01 PM EDT on September 28, 2016 (GMT -0400)
Savannah International

Weather History for KSAV - July, 2014

Change the Weather History Date:

Wednesday, July 23, 2014

  Actual Average Record
Temperature  
Mean Temperature 84 °F 83 °F  
Max Temperature 94 °F 93 °F 103 °F (1952)
Min Temperature 74 °F 73 °F 61 °F (1966)
Degree Days  
Heating Degree Days 0 0  
Month to date heating degree days 0 0  
Since 1 June heating degree days 0 0  
Since 1 July heating degree days 0 0  
Cooling Degree Days 19 18  
Month to date cooling degree days 404 406  
Year to date cooling degree days 1384 1255  
Since 1 June cooling degree days 895 852  
Growing Degree Days 33 (Base 50)    
Moisture  
Dew Point 73 °F    
Average Humidity 72    
Maximum Humidity 94    
Minimum Humidity 49    
Precipitation  
Precipitation 0.00 in 0.19 in 5.22 in (1942)
Month to date precipitation 1.89 3.98  
Year to date precipitation 29.32 26.19  
Sea Level Pressure  
Sea Level Pressure 30.04 in    
Wind  
Wind Speed 5 mph (South)    
Max Wind Speed 16 mph    
Max Gust Speed 21 mph    
Visibility 10 miles    
Events      
T = Trace of Precipitation, MM = Missing Value Source: NWS Daily Summary

Daily Weather History Graph

Daily Weather History Graph

Search for Another Location

Airport or City:

Trip Planner

Search our weather history database for the weather conditions in past years. The results will help you decide how hot, cold, wet, or windy it might be!

Date:

Astronomy

Jul. 23, 2014 Rise Set
Actual Time 6:34 AM EDT 8:28 PM EDT
Civil Twilight 6:06 AM EDT 8:55 PM EDT
Nautical Twilight 5:33 AM EDT 9:28 PM EDT
Astronomical Twilight 4:58 AM EDT 10:03 PM EDT
Moon 3:50 AM EDT (7/23) 5:56 PM EDT (7/23)
Length of Visible Light 14h 48m
Length of Day
13h 54m
Waning Crescent, 10% of the Moon is Illuminated
Jul 23
Waning Crescent
Jul 26
New
Aug 3
First Quarter
Aug 10
Full
Aug 17
Last Quarter

Hourly Weather History & Observations

Time (EDT) Temp. Heat Index Dew Point Humidity Pressure Visibility Wind Dir Wind Speed Gust Speed Precip Events Conditions
12:53 AM 77.0 °F - 73.9 °F 90% 30.08 in 10.0 mi NNW 3.5 mph - N/A   Clear
1:53 AM 75.9 °F - 73.0 °F 91% 30.08 in 10.0 mi Calm Calm - N/A   Clear
2:53 AM 75.9 °F - 73.9 °F 94% 30.07 in 9.0 mi North 3.5 mph - N/A   Clear
3:53 AM 75.0 °F - 73.0 °F 94% 30.06 in 10.0 mi Calm Calm - N/A   Clear
4:53 AM 75.0 °F - 72.0 °F 90% 30.05 in 10.0 mi Calm Calm - N/A   Clear
5:53 AM 75.0 °F - 72.0 °F 90% 30.06 in 10.0 mi Calm Calm - N/A   Partly Cloudy
6:53 AM 75.0 °F - 72.0 °F 90% 30.06 in 7.0 mi Calm Calm - N/A   Scattered Clouds
7:53 AM 78.1 °F - 73.9 °F 87% 30.08 in 10.0 mi Calm Calm - N/A   Scattered Clouds
8:53 AM 81.0 °F 86.7 °F 75.0 °F 82% 30.08 in 10.0 mi Calm Calm - N/A   Scattered Clouds
9:53 AM 84.0 °F 91.2 °F 73.9 °F 72% 30.08 in 10.0 mi West 4.6 mph - N/A   Scattered Clouds
10:53 AM 87.1 °F 94.5 °F 73.0 °F 63% 30.09 in 10.0 mi WSW 4.6 mph - N/A   Scattered Clouds
11:53 AM 87.1 °F 92.8 °F 71.1 °F 59% 30.08 in 10.0 mi Variable 3.5 mph - N/A   Scattered Clouds
12:53 PM 91.9 °F 97.4 °F 70.0 °F 48% 30.06 in 10.0 mi Calm Calm - N/A   Mostly Cloudy
1:53 PM 91.9 °F 98.4 °F 71.1 °F 50% 30.05 in 10.0 mi Calm Calm - N/A   Mostly Cloudy
2:53 PM 91.0 °F 97.6 °F 71.1 °F 52% 30.04 in 10.0 mi SSW 5.8 mph - N/A   Mostly Cloudy
3:53 PM 89.1 °F 99.1 °F 75.0 °F 63% 30.02 in 10.0 mi SE 12.7 mph - N/A   Mostly Cloudy
4:53 PM 88.0 °F 98.5 °F 75.9 °F 67% 30.00 in 10.0 mi SSE 13.8 mph - N/A   Mostly Cloudy
5:53 PM 89.1 °F 99.1 °F 75.0 °F 63% 29.99 in 10.0 mi South 11.5 mph 17.3 mph N/A   Mostly Cloudy
6:53 PM 88.0 °F 97.5 °F 75.0 °F 65% 29.99 in 10.0 mi SSE 10.4 mph - N/A   Mostly Cloudy
7:53 PM 84.9 °F 93.3 °F 75.0 °F 72% 29.98 in 10.0 mi SSE 9.2 mph - N/A   Mostly Cloudy
8:53 PM 82.9 °F 89.4 °F 73.9 °F 74% 29.99 in 10.0 mi South 5.8 mph - N/A   Mostly Cloudy
9:53 PM 82.0 °F 88.6 °F 75.0 °F 79% 29.99 in 10.0 mi South 5.8 mph - N/A   Mostly Cloudy
10:53 PM 81.0 °F 86.7 °F 75.0 °F 82% 29.99 in 10.0 mi South 5.8 mph - N/A   Scattered Clouds
11:53 PM 81.0 °F 87.3 °F 75.9 °F 85% 29.99 in 10.0 mi South 8.1 mph - N/A   Partly Cloudy